Theta_e
298 298 297 296 295 295 295 295 294 294 294 294 294 295 295 295 296 297 298 298 299 299 299 299 298 298 297 296 295 295 295 295 297 296 296 295 295 294 293 293 292 291 290
294 294 294 294 294 294 294 294 294 294 294 294 293 293 294 293 294 294 294 295 295 296 297 298 298 297 297 296 295 295 295 295 295 296 295 295 295 294 293 293 292 290 290
293 294 294 294 294 294 294 293 293 293 293 293 293 293 293 293 293 293 293 293 293 294 294 294 295 296 296 296 296 296 295 295 295 295 295 295 294 294 293 292 291 290 290
293 293 293 293 293 293 293 293 293 293 293 293 293 292 292 292 292 292 292 293 293 294 294 294 293 293 294 295 296 296 296 295 295 294 294 294 294 294 292 291 291 291 290
293 293 293 292 292 292 292 292 292 292 292 292 292 292 292 292 292 292 293 293 294 294 294 294 294 294 293 292 293 294 295 295 294 294 294 294 294 293 292 291 291 291 291
292 292 291 291 291 291 291 291 291 291 291 291 291 291 291 291 291 292 292 293 293 294 294 294 293 293 294 294 293 293 294 294 294 293 293 293 293 293 292 291 291 291 292
291 291 291 290 290 290 290 290 290 290 290 290 291 291 291 291 291 291 291 292 292 293 293 292 292 292 292 293 293 293 293 293 294 294 292 292 292 292 291 291 291 291 291
291 291 290 290 290 290 290 290 290 290 289 290 290 290 290 290 290 290 290 291 291 291 291 291 291 291 291 291 291 292 292 293 293 293 295 292 291 291 291 291 291 290 290
291 290 290 290 289 289 290 289 289 289 289 289 289 289 289 290 290 290 290 290 290 291 291 291 291 291 291 291 292 292 292 292 292 292 291 293 291 290 291 290 291 290 290
290 290 289 289 289 289 289 289 288 288 288 288 289 289 289 289 289 290 290 291 291 291 291 291 291 291 292 292 292 292 293 292 292 292 291 292 292 291 291 290 290 290 289
289 289 289 289 289 289 288 288 288 288 288 288 288 289 289 289 289 290 290 291 291 291 291 292 291 291 292 292 292 292 293 292 293 293 291 291 292 290 291 290 290 289 289
290 289 289 289 289 288 288 288 288 288 288 288 289 289 289 289 289 289 290 291 291 291 291 291 292 292 292 292 292 292 292 293 293 291 290 290 290 290 290 290 290 289 289
289 288 288 288 288 288 287 287 287 288 288 288 289 289 289 289 289 289 289 290 291 291 291 291 291 292 292 292 291 291 291 292 291 289 289 289 289 289 289 289 288 288 287
288 288 288 288 288 288 287 287 287 288 288 288 289 289 289 290 290 289 290 290 291 291 291 292 292 292 292 291 291 291 290 291 290 290 290 289 288 288 287 287 287 286 286
288 288 288 287 287 287 287 287 287 287 288 288 289 289 290 290 290 290 290 290 291 291 292 292 291 291 290 290 290 289 289 290 290 289 290 288 288 287 287 287 287 286 286
287 288 288 288 287 287 287 287 287 287 287 288 288 288 288 289 289 289 289 290 290 291 291 291 290 289 289 290 290 290 289 289 289 289 289 288 288 288 287 286 286 285 286
287 287 287 287 287 287 287 287 287 287 287 287 287 288 288 289 289 289 290 290 290 291 291 290 289 289 289 289 290 289 289 289 289 288 288 288 288 287 287 286 285 285 285
287 287 287 287 287 287 287 287 287 287 288 287 287 288 288 289 289 289 289 289 290 290 290 289 289 288 288 288 289 289 289 288 288 288 288 288 287 287 287 286 286 285 285
287 287 287 287 287 287 287 287 287 287 287 287 287 287 288 288 289 288 289 288 289 288 289 289 289 288 288 288 288 288 288 288 287 287 287 287 287 286 286 286 286 285 285
287 287 286 287 287 287 287 287 286 287 287 287 287 287 288 289 288 288 288 287 288 288 289 289 289 288 288 287 288 288 288 287 287 287 287 287 286 285 286 285 285 285 285
287 287 287 287 287 287 287 287 287 286 287 287 287 287 288 288 287 288 287 287 286 287 288 288 288 287 287 287 287 287 287 287 287 286 286 286 285 285 285 284 284 284 284
287 287 287 287 287 287 287 287 287 287 287 286 287 287 287 287 287 285 285 285 285 285 286 287 287 286 286 287 287 287 286 286 286 286 286 285 284 284 284 284 284 283 282
287 287 287 287 287 286 286 286 286 287 286 286 287 287 286 286 284 284 284 284 284 285 286 286 286 286 286 286 286 286 286 286 286 286 285 284 283 284 283 283 283 282 282
287 287 287 286 286 286 286 286 286 285 286 286 286 285 284 284 283 283 283 283 284 284 285 285 285 285 285 286 286 286 286 286 286 286 285 284 283 283 283 283 282 282 281
286 286 285 286 286 285 285 285 285 285 286 284 284 283 282 282 282 282 282 283 283 284 284 285 285 285 285 285 285 286 286 286 286 286 285 284 283 282 282 282 281 281 280
286 286 286 285 285 285 284 284 284 284 283 282 282 281 281 281 281 281 282 282 283 284 284 284 284 285 285 285 285 285 286 285 285 284 283 283 282 281 281 281 280 280 280
Wind_Speed
5 6 6 6 6 6 6 7 8 9 10 11 12 12 13 14 14 15 16 17 18 19 20 22 25 23 24 23 22 24 25 25 17 25 26 24 21 21 21 18 16 15 16
4 4 4 5 5 6 7 8 9 10 11 12 13 14 14 15 15 16 18 18 19 21 22 22 23 22 24 26 27 28 28 29 27 24 26 24 25 20 20 19 18 16 16
3 3 3 4 5 7 8 10 11 12 12 13 13 15 16 17 18 18 19 20 20 21 22 23 23 23 25 25 27 28 28 30 30 29 27 24 24 21 19 19 19 18 17
2 2 3 5 7 8 9 11 12 13 14 14 15 16 17 18 19 19 19 20 21 22 22 23 24 24 26 26 27 28 28 29 28 29 27 24 24 22 20 18 19 17 16
1 1 4 6 7 9 10 11 12 13 14 15 16 17 17 18 18 20 21 22 23 24 24 24 25 26 29 32 29 29 28 28 28 27 26 23 23 22 21 19 19 17 16
1 2 4 6 8 10 11 13 14 14 15 16 17 18 20 20 22 24 23 23 24 25 26 25 26 27 28 29 31 34 36 32 28 27 26 24 26 26 23 20 17 16 8
2 4 6 8 10 12 14 15 15 16 17 17 18 19 20 22 25 25 25 25 25 26 26 26 25 24 25 27 29 31 33 34 39 39 32 30 27 29 25 21 19 19 18
4 6 8 10 12 15 16 16 17 17 18 19 20 21 22 24 25 26 25 25 23 23 22 22 24 25 24 26 29 30 31 32 32 35 42 39 34 28 25 25 18 20 16
6 8 11 13 15 16 17 18 20 19 20 21 21 23 24 26 25 25 23 22 21 23 24 24 26 29 29 29 32 32 32 34 34 33 37 40 35 28 25 19 17 14 11
9 13 15 16 17 17 18 19 19 19 21 22 23 24 25 27 25 25 22 23 24 26 26 27 26 27 31 32 33 32 30 31 30 29 28 33 35 30 27 26 19 15 13
14 17 20 20 19 19 18 18 19 20 21 23 24 24 25 26 27 25 24 25 24 25 27 28 28 29 32 33 33 34 31 37 31 30 25 24 26 28 29 29 22 19 16
17 20 20 20 21 22 17 18 18 20 21 23 24 24 24 24 25 26 26 26 28 28 29 30 32 32 35 38 37 34 35 34 26 21 21 19 18 19 23 25 21 22 18
15 17 20 21 19 18 17 18 19 19 20 21 22 23 25 25 26 26 27 27 28 29 28 33 36 37 36 34 31 29 32 26 20 17 17 19 21 22 22 20 20 19 15
16 18 17 17 18 17 16 16 17 19 21 22 22 23 26 27 25 25 26 27 29 29 29 31 31 34 33 31 33 23 23 22 19 20 17 18 19 19 19 17 15 14 11
16 17 17 16 16 16 16 17 19 23 21 24 26 25 27 30 31 33 36 35 33 33 37 31 27 23 26 25 19 21 21 20 17 18 16 18 18 17 16 17 14 13 8
17 16 15 16 16 16 17 21 23 22 25 25 27 28 31 32 35 36 37 36 36 34 32 24 23 24 23 24 17 18 17 18 18 17 19 19 16 14 13 13 12 10 9
17 18 16 16 16 16 18 19 21 29 29 28 26 26 29 33 36 39 39 36 36 32 25 22 21 23 22 23 20 18 15 15 16 16 15 15 15 14 13 12 10 9 9
18 18 17 16 16 17 18 20 21 22 23 30 32 27 28 29 32 32 37 37 28 23 20 22 20 22 21 21 20 17 15 12 14 13 13 15 14 12 11 10 10 9 11
17 17 16 17 17 18 20 20 22 23 24 26 28 29 27 30 28 32 30 26 24 23 22 21 21 22 21 21 19 18 15 13 14 14 13 12 10 9 9 8 8 10 11
18 19 17 18 19 19 19 20 22 22 23 24 26 27 31 26 27 26 26 28 24 25 23 23 21 21 20 20 18 16 12 12 13 14 11 12 11 10 8 8 10 11 11
19 19 18 19 19 19 20 22 22 22 23 25 27 29 32 33 31 26 28 22 27 29 21 23 21 21 20 20 17 14 12 11 13 12 11 11 10 9 9 10 10 10 10
19 19 19 19 20 20 21 22 23 24 25 26 28 30 33 32 20 28 26 26 24 30 26 24 23 20 21 19 17 14 12 11 12 12 10 9 9 9 9 10 10 10 9
18 20 22 21 20 21 22 21 22 24 26 29 29 27 27 21 27 24 26 25 26 27 24 22 22 20 18 16 13 13 11 11 14 14 11 10 10 9 10 10 9 9 9
20 20 21 21 20 20 21 23 23 25 29 28 23 30 26 24 25 26 26 26 26 26 22 23 19 17 15 12 8 8 9 9 12 13 12 12 10 10 9 8 9 9 8
19 20 21 20 21 21 22 22 23 27 24 26 26 26 26 25 25 25 25 25 25 25 23 20 16 13 10 7 7 7 7 8 9 10 11 11 10 10 8 8 8 7 7
22 22 22 21 20 20 20 21 24 22 26 25 25 25 25 24 25 25 25 25 24 23 21 16 12 8 6 5 5 6 6 6 7 8 9 9 9 8 7 8 8 6 7
Wind_Direction
80 76 69 55 42 31 19 4 351 340 331 329 327 322 314 309 306 298 291 288 281 277 272 266 265 263 258 254 248 244 242 239 249 255 253 258 255 252 259 258 259 261 265
96 84 63 41 28 17 4 354 345 337 333 331 329 323 318 314 310 305 299 294 288 284 281 276 271 269 262 257 253 247 243 241 243 254 250 249 249 254 257 257 254 257 258
107 81 46 24 11 1 352 347 342 337 335 332 327 322 319 315 312 308 302 297 292 287 285 282 279 275 270 264 259 257 252 249 245 248 253 247 249 250 253 253 255 255 255
115 58 17 5 1 354 347 342 340 337 332 328 325 321 317 314 310 308 306 302 298 295 291 286 283 279 276 276 274 268 262 256 251 249 250 246 242 242 245 250 252 250 253
158 0 0 356 350 345 340 336 333 330 327 324 320 317 313 309 305 309 310 307 302 298 293 289 285 281 277 274 271 269 267 260 254 251 250 246 237 234 231 238 244 251 247
246 333 340 339 337 335 332 329 328 326 322 319 316 313 310 307 304 308 308 305 301 297 294 293 291 290 286 283 278 273 265 264 260 253 251 245 240 232 231 226 233 242 250
286 307 322 326 326 326 327 325 323 319 317 312 309 308 306 304 308 308 308 304 298 293 291 293 295 294 295 294 291 286 280 270 259 253 251 247 247 237 225 224 223 235 235
287 302 314 318 318 321 320 316 314 312 309 309 308 307 304 301 304 305 305 300 293 291 291 294 295 298 299 300 299 293 287 281 271 261 249 245 242 246 231 228 223 233 239
295 303 308 312 313 313 310 309 309 308 306 305 304 304 302 299 299 300 306 303 295 293 295 295 297 296 297 298 296 291 286 278 277 271 262 247 238 235 222 210 204 204 228
299 301 308 310 308 305 304 302 302 301 301 304 304 302 300 298 300 299 301 304 299 302 302 297 294 292 294 294 297 293 287 278 278 272 261 255 236 226 214 205 196 202 224
304 309 308 308 304 299 298 297 300 304 305 305 305 307 306 305 305 304 302 304 303 300 300 298 295 293 294 292 294 291 286 291 275 270 250 249 230 214 208 205 204 204 209
307 302 302 303 304 303 298 302 305 305 304 305 308 311 312 310 306 307 305 296 302 301 297 295 295 293 295 294 294 294 292 294 276 249 226 220 212 202 203 203 206 203 214
294 294 297 300 302 302 300 302 303 303 304 306 307 309 309 311 307 308 307 301 296 294 289 293 295 296 295 296 291 285 296 286 282 218 212 220 223 222 206 195 202 214 220
289 291 292 294 298 300 296 294 296 300 304 303 301 302 305 304 304 306 304 302 299 299 295 296 296 299 297 292 293 286 291 278 267 222 212 211 207 193 191 196 196 196 198
285 284 288 292 295 295 293 293 293 294 292 294 293 296 298 296 297 303 305 305 304 302 303 303 301 303 303 297 276 291 288 279 261 236 213 181 181 183 185 193 188 176 178
284 288 290 291 291 291 295 300 298 289 294 291 288 289 288 285 293 299 300 300 302 301 300 300 300 304 300 297 290 289 282 276 260 236 206 187 176 178 175 178 177 174 190
283 285 287 286 288 291 296 299 301 306 304 297 292 289 290 288 293 297 303 301 301 296 292 292 291 296 296 297 288 284 276 263 245 211 183 175 169 172 167 169 174 184 207
282 281 281 284 285 289 293 295 296 295 297 302 309 306 302 299 295 300 305 306 301 292 288 289 281 291 290 294 290 283 273 259 220 201 190 180 179 167 165 171 181 197 213
283 283 283 285 285 286 292 294 296 294 293 297 303 306 305 303 301 304 305 305 299 303 289 292 281 291 287 292 288 284 267 242 221 197 182 177 174 172 175 178 193 208 212
286 281 279 284 287 291 294 296 296 295 297 296 300 302 303 298 308 303 303 303 293 297 283 291 286 293 289 290 292 278 256 238 214 196 194 192 186 187 184 190 201 208 212
286 285 283 285 284 288 289 289 288 291 292 294 298 297 302 305 304 300 305 305 303 291 282 293 291 294 292 289 290 272 249 228 203 189 186 188 187 185 195 199 199 204 212
284 283 284 283 286 287 288 289 288 289 294 299 295 297 304 302 297 307 300 300 298 302 293 288 294 291 290 286 283 259 234 221 204 194 192 194 195 193 193 194 194 198 206
280 281 282 281 281 286 288 288 292 293 297 296 295 301 309 303 305 301 301 301 300 305 305 301 299 291 289 290 280 255 229 213 202 206 202 200 199 195 192 192 193 198 207
285 284 284 285 285 285 289 295 296 297 297 296 302 306 303 302 302 301 299 298 297 303 300 303 299 292 289 287 266 246 232 223 216 210 213 203 196 188 188 190 194 203 211
286 283 282 282 287 289 293 294 298 297 298 304 304 303 302 301 300 300 299 301 301 303 304 304 297 291 285 267 246 230 218 197 199 210 205 203 198 186 185 189 194 206 215
290 288 287 288 287 289 292 294 294 301 305 303 301 300 301 300 299 299 300 301 301 303 304 300 294 281 268 242 221 186 175 184 189 189 187 183 180 180 188 191 203 210 226